SCP
0 0 0 0 0 0 0 0 0 0 0 0 0 0 0 0 0 0 0 0 0 0 0 0 0 0 0 0 0 0 0 0 0 0 0 0 0 0 0 0 0 0 0 0 0 0 0 0 0 0 0 0 0 0
0 0 0 0 0 0 0 0 0 0 0 0 0 0 0 0 0 0 0 0 0 0 0 0 0 0 0 0 0 0 0 0 0 0 0 0 0 0 0 0 0 0 0 0 0 0 0 0 0 0 0 0 -0 -0
0 0 0 0 0 0 0 0 0 0 0 0 0 0 0 0 0 0 0 0 0 0 0 0 0 0 0 0 0 0 0 0 0 0 0 0 0 0 0 0 0 0 0 0 0 0 0 0 0 0 0 -0 -0 -0
0 0 0 0 0 0 0 0 0 0 0 0 0 0 0 0 0 0 0 0 0 0 0 0 0 0 0 0 0 -0 0 0 0 0 0 0 0 0 0 0 -0 0 0 0 0 0 0 0 0 -0 -0 -0 -0 0
0 0 0 0 0 0 0 0 0 0 0 0 0 0 0 0 0 0 0 0 0 0 0 0 0 0 0 0 0 -0 -0 0 0 0 0 0 0 0 0 0 0 0 0 0 0 0 0 0 -0 -0 -0 -0 0 0
0 0 0 0 0 0 0 0 0 0 0 0 0 0 0 0 0 0 0 0 0 0 0 0 0 0 0 0 0 -0 -0 0 0 0 0 0 0 0 0 0 0 0 0 0 0 0 0 0 -0 0 -0 0 0 0
0 0 0 0 0 0 0 0 0 0 0 0 0 0 0 0 0 0 0 0 0 0 0 0 0 0 0 -0 -0 -0 0 0 0 0 0 0 0 0 0 0 0 0 0 0 0 0 0 0 0 -0 -0 0 0 0
0 0 0 0 0 0 0 0 0 0 0 0 -0 0 0 0 0 0 0 0 0 0 0 0 0 0 0 0 0 0 0 0 0 0 0 0 0 0 0 0 -0 0 0 0 -0 0 0 0 0 -0 -0 0 0 0
0 0 0 0 0 0 0 0 0 0 0 0 -0 0 0 0 0 0 0 0 0 0 0 0 0 0 0 0 -0 0 0 0 0 0 0 0 0 0 0 -0 -0 0 0 0 0 0 0 0 0 0 0 0 0 0
0 0 0 0 0 0 0 0 0 0 0 0 0 0 0 0 0 0 0 0 0 0 0 0 0 0 0 0 0 -0 -0 -0 0 0 0 0 0 0 0 0 0 0 0 0 0 0 0 0 0 0 0 0 0 0
0 0 0 0 0 0 0 0 0 0 0 0 0 0 0 0 0 0 0 0 0 0 0 0 0 0 0 0 0 -0 -0 -0 0 0 0 0 0 0 0 0 0 0 0 0 -0 -0 0 0 0 0 0 0 0 0
0 0 0 0 0 0 0 0 0 0 0 0 0 0 0 0 0 0 0 0 0 0 0 0 0 0 0 0 -0 -0 -0 0 0 -0 0 0 0 -0 -0 0 0 0 0 -0 -0 -0 0 0 0 0 0 0 0 0
0 0 0 0 0 0 0 0 0 0 0 0 0 0 0 0 0 0 0 0 0 0 0 0 0 0 0 0 0 -0 -0 -0 0 0 -0 -0 -0 -0 -0 -0 0 0 0 -0 -0 -0 -0 0 0 0 0 0 0 0
0 0 0 0 0 0 0 0 0 0 0 0 0 0 0 0 0 0 0 0 0 0 0 0 0 0 0 0 0 0 0 0 -0 -0 0 -0 -0 -0 -0 0 0 0 0 0 -0 -0 -0 -0 -0 -0 -0 0 0 0
0 0 0 0 0 0 0 0 0 0 0 0 0 0 0 0 0 0 0 0 0 0 0 0 0 0 -0 0 0 0 0 0 0 0 0 -0 -0 -0 -0 -0 0 0 0 0 -0 -0 -0 0 -0 -0 -0 -0 0 0
0 0 0 0 0 0 0 0 0 0 0 0 0 0 0 0 0 0 0 0 0 0 0 -0 -0 0 -0 -0 0 0 0 0 0 0 0 0 -0 -0 -0 -0 -0 0 0 0 0 -0 -0 0 0 -0 -0 -0 -0 0
0 0 0 0 0 0 0 0 0 0 0 0 0 0 0 0 0 0 0 0 0 0 0 -0 -0 -0 0 0 0 0 0 0 0 0 0 -0 -0 -0 -0 0 -0 -0 0 0 0 -0 -0 -0 0 -0 -0 -0 -0 -0
0 0 0 0 0 0 0 0 0 0 0 0 0 0 0 0 0 0 0 0 0 0 -0 -0 -0 0 0 -0 0 0 0 0 0 0 0 0 0 -0 -0 -0 -0 -0 -0 0 -0 0 -0 0 0 -0 -0 -0 -0 -0
0 0 0 0 0 0 0 0 0 0 0 0 0 0 0 0 0 -0 -0 0 0 0 0 -0 -0 -0 -0 0 0 0 0 0 0 0 0 0 0 -0 -0 -0 -0 -0 0 -0 -0 0 0 0 0 0 -0 -0 -0 -0
0 0 0 0 0 0 0 0 0 0 0 0 0 0 0 0 -0 -0 -0 0 0 0 0 0 -0 -0 0 0 0 -0 -0 -0 0 0 0 0 0 0 0 0 0 0 0 -0 -0 -0 -0 0 -0 -0 -0 -0 -0 -0
0 0 0 0 0 0 0 0 0 0 0 0 0 0 0 0 0 0 -0 0 0 0 0 0 0 0 0 0 -0 -0 -0 0 0 0 0 0 0 0 0 0 0 0 0 -0 -0 -0 -0 -0 0 0 -0 -0 -0 -0
0 0 0 0 0 0 0 0 0 0 0 0 0 0 0 0 0 0 0 0 0 0 0 0 0 0 0 -0 -0 -0 0 0 0 0 0 0 0 0 0 0 0 0 0 0 0 0 -0 -0 -0 0 0 0 0 -0
0 0 0 0 0 0 0 0 0 0 0 0 0 0 0 0 0 0 0 0 0 0 0 0 0 0 0 0 -0 -0 -0 0 0 0 0 0 0 0 0 0 0 0 0 0 -0 0 0 -0 -0 -0 0 -0 0 0
0 0 0 0 0 0 0 0 0 0 0 0 0 0 0 0 0 0 0 0 0 0 0 0 0 0 0 0 0 0 0 -0 -0 0 0 0 0 0 0 0 0 0 0 0 0 0 0 0 0 -0 0 0 -0 -0
0 0 0 0 0 0 0 0 0 0 0 0 0 0 0 0 0 0 0 0 0 0 0 0 0 0 0 -0 -0 0 -0 -0 -0 0 0 0 0 0 0 0 0 0 0 0 0 0 0 0 0 0 0 -0 0 0
0 0 0 0 0 0 0 0 0 0 0 0 0 0 0 0 0 0 0 0 0 0 -0 -0 0 0 0 0 0 -0 -0 -0 -0 -0 -0 -0 -0 0 0 0 0 0 0 0 0 0 0 0 0 0 0 0 0 0
0 0 0 0 0 0 0 0 0 0 0 0 0 0 0 0 0 0 0 0 0 -0 -0 0 0 0 0 0 0 0 -0 -0 -0 -0 0 0 -0 -0 0 0 0 0 0 0 0 0 0 0 0 0 0 0 0 0
0 0 0 0 0 0 0 0 0 0 0 0 0 0 0 0 0 0 0 0 0 0 0 0 0 0 0 0 0 0 0 -0 -0 0 0 0 0 -0 0 0 0 0 0 0 0 0 0 0 0 0 0 0 0 0
0 0 0 0 0 0 0 0 0 0 0 0 0 0 0 0 0 0 0 0 0 0 0 0 0 0 0 0 0 -0 -0 -0 -0 0 0 0 0 0 0 0 0 0 0 0 0 0 0 0 0 0 0 0 0 0
0 0 0 0 0 0 0 0 0 0 0 0 0 0 0 0 0 0 0 0 0 0 0 0 0 0 0 0 0 -0 -0 -0 -0 -0 -0 0 0 0 0 0 0 0 0 0 0 0 0 0 0 0 0 0 0 0
0 0 0 0 0 0 0 0 0 0 0 0 0 0 0 0 0 0 0 0 0 0 0 0 0 0 0 0 0 0 0 0 -0 -0 -0 -0 -0 0 0 0 0 0 0 0 0 0 0 0 0 0 0 0 0 0
0 0 0 0 0 0 0 0 0 0 0 0 0 0 0 0 0 0 0 0 0 0 0 0 0 0 0 0 0 0 0 0 -0 -0 -0 -0 -0 -0 -0 -0 0 -0 0 0 0 0 0 0 0 0 0 0 0 0
0 0 0 0 0 0 0 0 0 0 0 0 0 0 0 0 0 0 0 0 0 0 0 0 0 0 0 0 0 0 0 0 0 0 -0 -0 0 -0 -0 -0 0 0 -0 0 0 0 0 0 0 0 0 0 0 0
Wind_Speed_500mb
39 38 35 38 33 37 39 39 43 41 41 40 44 44 42 41 34 25 15 11 15 21 58 54 38 53 30 24 7 20 21 9 9 8 4 5 4 7 8 6 7 9 4 6 6 7 10 5 9 13 19 58 44 49
40 39 36 39 34 36 37 38 41 40 41 41 44 45 40 39 34 24 27 13 26 36 48 79 87 76 73 85 65 25 22 21 7 5 5 5 4 5 5 6 2 5 9 5 11 10 4 31 20 48 36 39 53 44
40 41 37 37 37 35 36 37 40 40 42 43 45 45 40 38 35 27 34 36 26 30 56 20 21 17 34 4 22 23 21 22 16 22 2 5 8 1 5 7 9 7 4 9 3 9 17 34 24 34 36 51 62 57
40 40 40 37 38 34 35 37 40 40 44 44 45 43 39 39 37 38 40 37 22 17 12 24 42 68 14 23 24 38 38 16 14 14 10 5 5 7 5 16 21 21 11 10 12 16 28 29 39 43 42 54 59 39
41 40 41 38 38 34 34 37 40 40 42 42 44 41 38 41 42 37 19 9 8 13 9 37 61 28 38 24 18 34 42 46 19 7 7 5 8 6 8 7 8 9 8 4 6 14 11 32 50 43 41 52 42 41
42 42 41 39 40 34 35 38 39 40 42 38 42 39 36 37 37 26 4 18 12 17 13 9 28 31 51 41 19 23 48 48 27 9 7 9 10 3 7 6 12 17 29 26 9 29 33 37 46 56 38 31 34 32
40 38 43 39 40 32 38 39 38 39 39 35 37 35 28 28 24 8 2 2 11 7 9 12 19 24 31 34 28 13 27 27 22 10 11 9 12 15 6 8 14 42 37 19 19 28 23 37 20 41 29 26 22 19
46 38 39 38 34 32 37 38 38 39 35 33 35 29 23 17 7 6 6 11 11 12 6 5 8 18 23 19 11 8 12 18 12 10 7 7 7 14 8 11 38 33 17 13 19 20 28 15 39 40 25 25 19 18
55 44 40 39 29 30 33 37 36 37 33 29 25 23 6 6 4 8 19 13 2 2 3 4 5 7 24 24 19 7 8 4 7 5 6 6 3 8 8 6 23 4 2 11 19 37 26 18 24 33 29 25 21 22
52 48 42 33 27 26 31 34 36 34 30 19 5 3 3 2 10 22 0 4 2 1 5 6 8 7 13 11 10 10 5 2 4 8 6 6 6 16 16 8 3 6 15 11 26 38 26 13 25 31 31 26 23 23
47 42 37 26 27 25 31 32 31 27 18 6 5 4 3 11 6 4 4 7 4 3 5 10 16 11 16 7 6 8 7 6 4 6 5 2 5 10 1 7 12 4 17 12 22 20 29 25 23 31 25 32 32 23
44 42 32 28 30 26 28 26 22 19 14 12 7 2 2 4 6 5 4 9 5 4 6 9 32 31 16 9 8 10 5 7 7 7 4 5 9 42 31 9 10 5 16 17 20 23 31 23 19 30 17 21 24 29
45 43 39 34 30 27 22 17 17 11 7 1 2 2 1 2 4 2 5 5 6 3 9 29 17 12 11 9 8 4 7 7 27 3 4 8 52 65 68 14 11 6 12 18 18 16 26 21 22 33 34 26 27 26
47 45 38 35 29 21 17 15 12 4 4 3 4 8 5 2 4 6 3 2 8 16 30 37 25 9 12 1 2 5 7 7 8 15 9 18 78 84 71 25 15 8 11 19 15 19 28 26 28 26 41 33 39 41
44 43 35 30 22 14 15 13 6 10 6 4 4 3 6 3 16 18 19 21 27 34 42 41 24 11 7 5 2 5 9 11 12 10 10 63 97 97 39 36 6 9 12 15 13 21 24 33 25 32 30 36 38 45
48 36 32 25 17 15 16 12 12 8 4 3 6 3 4 10 14 20 14 17 21 32 30 14 6 8 9 9 8 13 7 6 6 14 50 69 79 81 39 41 38 8 6 15 13 17 19 30 34 34 34 35 36 43
38 35 26 19 22 19 16 24 10 6 4 5 8 9 19 7 15 24 19 23 22 19 3 5 10 3 4 7 7 7 10 12 34 50 66 67 70 79 58 36 28 18 4 11 8 14 17 17 25 34 40 34 34 35
41 33 27 28 25 20 26 12 8 8 10 14 5 3 13 15 21 17 14 17 15 14 11 4 9 11 5 4 4 9 33 39 39 51 54 56 63 68 71 37 21 22 17 4 6 6 9 7 13 20 28 33 34 33
36 34 33 30 33 19 11 10 6 5 16 8 18 10 19 27 22 14 19 14 9 5 5 9 7 5 4 5 17 33 33 41 53 61 57 54 51 51 63 63 40 30 9 12 6 12 12 5 6 7 16 22 26 25
31 32 31 36 34 10 8 8 11 7 5 5 9 8 16 19 18 16 20 15 21 12 13 6 4 6 9 25 30 26 37 46 48 57 60 61 54 41 48 61 61 37 21 17 8 6 4 2 8 10 8 13 21 17
42 35 27 28 26 9 7 8 12 9 5 5 12 15 17 20 14 15 16 17 17 9 6 5 8 9 12 19 25 30 34 35 39 41 46 55 48 47 40 44 54 47 30 24 29 27 13 12 17 16 8 7 10 21
35 30 25 27 8 11 7 11 5 12 11 6 9 7 14 12 12 7 11 13 8 5 4 4 4 10 17 21 27 29 34 35 35 35 38 37 44 46 37 33 34 39 45 36 23 17 21 15 7 23 12 8 8 13
36 34 19 10 7 17 8 12 8 12 5 8 10 7 6 7 14 17 9 7 7 7 4 5 7 8 14 17 23 28 37 41 39 36 44 39 36 41 40 29 23 33 40 38 30 20 14 13 11 24 23 13 15 20
38 16 9 12 13 9 7 9 11 8 10 6 6 7 9 12 22 8 4 9 13 8 4 4 7 10 14 19 24 29 33 34 37 29 39 49 51 47 42 37 30 28 32 34 28 23 14 10 3 10 24 23 24 21
11 13 10 9 14 8 9 9 10 6 7 7 9 5 6 12 5 4 8 15 24 11 8 4 2 7 13 19 17 21 37 29 30 31 35 31 43 47 44 46 42 38 37 35 27 20 15 10 11 8 12 31 30 25
6 11 15 15 7 9 9 9 10 10 6 7 8 15 9 7 6 6 10 30 24 20 19 14 7 7 8 11 12 24 35 39 27 22 27 37 41 48 44 47 52 53 43 36 37 32 21 16 8 12 18 20 36 36
7 10 13 18 11 11 6 6 21 9 8 9 7 7 6 6 6 8 23 28 25 26 18 9 2 3 2 2 9 15 26 36 37 19 11 14 23 37 33 44 51 50 42 34 33 33 30 24 22 16 15 24 30 42
13 8 10 17 13 18 5 7 9 9 8 11 24 8 14 13 6 18 20 26 27 19 13 9 5 0 5 6 6 12 24 30 31 26 12 22 32 43 40 38 43 46 46 40 29 30 29 29 28 26 22 23 33 47
13 11 17 11 12 6 8 9 10 14 18 23 10 5 8 9 22 28 34 29 23 23 18 17 13 19 20 19 21 26 31 35 40 46 48 46 50 52 49 45 45 50 51 52 44 29 27 24 25 27 23 24 24 34
11 23 11 15 11 8 16 17 5 11 17 25 27 43 49 43 31 26 29 25 24 21 16 15 13 9 9 6 15 23 28 33 39 44 45 43 43 44 45 46 48 50 51 53 53 45 29 17 17 24 26 26 26 27
11 29 10 10 11 18 26 19 16 17 33 30 53 68 45 41 41 33 30 26 26 24 19 15 11 7 6 7 8 13 21 24 32 36 38 38 32 36 42 42 43 45 46 47 50 50 44 34 27 17 10 14 21 29
19 17 19 8 7 22 28 26 12 14 33 38 37 40 35 21 10 15 17 17 16 16 17 16 12 10 4 2 2 11 17 17 26 33 42 44 35 35 37 37 39 39 39 41 43 46 49 43 38 34 26 20 14 11
29 21 26 15 11 13 20 21 11 12 14 19 24 34 22 10 9 13 19 15 13 16 15 10 12 8 8 8 7 5 8 12 24 32 38 36 32 33 32 34 35 35 34 35 37 39 43 45 45 39 34 33 29 20
Wind_Direction_500mb
270 278 287 294 307 309 317 322 329 330 330 334 332 333 335 335 336 335 349 241 306 273 282 286 284 262 259 243 247 296 345 341 349 9 348 323 336 328 330 274 216 200 214 236 251 259 280 80 22 313 294 302 306 314
267 274 282 291 302 305 312 318 327 327 327 329 330 328 332 331 330 323 314 263 277 276 264 285 288 275 258 268 266 259 241 290 289 351 13 327 301 311 323 291 352 278 208 245 209 239 300 325 283 301 286 294 306 298
266 272 281 288 297 301 307 316 325 325 324 327 327 324 329 328 323 314 307 311 314 291 307 298 304 354 322 249 288 222 253 232 225 241 140 265 257 178 264 254 277 285 207 243 274 259 255 313 324 309 298 306 307 306
265 272 278 283 291 297 302 313 323 322 323 325 324 321 327 325 321 317 312 312 285 273 278 281 307 317 350 337 265 247 236 227 241 213 223 237 249 196 263 281 283 262 258 239 254 281 308 322 321 316 316 309 311 322
267 270 275 281 287 292 299 311 319 319 321 325 321 319 326 324 323 326 341 347 251 221 290 298 325 357 4 342 293 235 223 229 219 198 221 229 236 258 247 246 242 200 231 255 259 282 293 316 316 317 320 315 317 322
256 266 272 278 285 290 299 307 316 319 321 327 318 317 326 326 331 336 67 51 38 242 300 309 314 326 3 358 288 218 219 222 221 217 222 231 243 118 271 270 268 294 284 261 261 297 286 324 325 337 319 316 318 316
250 258 268 272 279 294 295 307 314 319 321 326 313 315 327 337 331 330 354 312 339 347 272 297 308 311 348 5 4 268 239 223 221 213 226 226 213 207 246 253 282 275 292 257 307 337 314 328 352 344 343 339 333 320
234 255 265 268 273 288 292 306 312 319 321 323 307 308 310 319 317 356 357 348 293 288 299 308 285 300 346 327 295 228 216 222 231 233 225 229 232 213 263 309 274 282 251 255 350 342 333 318 342 353 356 357 351 352
229 236 265 263 272 280 294 305 315 317 321 318 303 311 311 206 309 336 329 342 78 262 323 270 296 296 322 318 295 258 215 238 230 229 236 218 246 234 217 56 289 164 341 352 359 11 12 355 355 357 2 3 3 2
238 226 256 256 272 279 297 308 315 317 324 324 307 355 122 118 280 317 53 150 90 273 242 261 261 268 305 295 285 319 233 253 247 228 220 206 257 283 260 237 205 338 17 28 16 16 18 342 13 13 8 14 13 13
235 224 247 253 263 275 296 307 310 319 329 5 284 213 262 255 272 264 209 189 146 267 251 260 255 269 292 257 278 280 293 249 275 268 257 312 320 330 160 283 191 2 26 45 29 34 24 28 14 16 14 24 24 26
228 222 237 249 252 268 288 297 306 314 342 337 336 353 124 179 242 252 220 127 187 236 234 244 309 293 283 275 296 304 280 309 248 323 275 18 341 349 347 223 178 43 53 60 34 37 31 38 19 16 20 32 35 33
223 232 226 238 247 266 279 290 290 309 340 46 42 326 270 200 22 175 316 356 346 275 297 325 320 289 251 255 266 313 296 278 323 350 60 37 335 331 325 268 184 121 81 79 54 45 37 52 39 24 26 32 32 45
228 223 217 238 248 264 273 265 271 270 170 209 197 323 169 274 310 43 107 166 4 332 336 324 304 265 290 191 22 291 312 313 344 16 2 329 326 319 324 184 182 149 86 70 66 37 37 38 38 38 32 32 38 46
216 208 227 235 244 245 244 246 239 180 168 240 259 234 221 26 79 72 49 22 4 351 339 326 307 229 274 82 24 340 329 34 22 0 304 319 326 330 61 88 117 135 112 67 56 42 41 41 46 40 32 38 47 52
203 215 224 223 220 209 215 192 147 130 171 239 242 311 313 66 26 29 21 18 1 348 338 334 337 20 356 331 61 21 19 18 301 319 323 330 331 342 23 32 38 78 116 47 54 41 48 47 52 48 48 48 54 52
202 212 203 184 176 184 179 157 150 188 224 229 241 259 267 129 72 64 61 20 0 10 320 2 6 345 273 38 38 15 349 314 318 330 331 330 338 346 359 1 6 11 156 56 64 38 39 53 58 57 61 63 59 57
200 195 174 172 169 159 159 162 185 202 226 233 246 242 94 101 86 73 42 16 14 346 326 34 54 25 48 45 15 335 313 327 333 327 329 335 339 357 13 9 358 34 100 94 251 350 36 48 49 62 67 66 70 72
196 181 170 170 163 147 152 177 202 238 228 237 220 146 111 101 90 55 22 13 10 15 72 53 56 46 22 2 319 314 338 345 335 331 335 342 354 6 14 12 23 18 6 5 18 287 303 329 343 51 69 62 62 71
176 163 168 166 164 152 162 190 195 224 244 164 173 160 135 116 101 55 38 45 68 68 56 52 53 347 305 318 334 1 352 345 346 337 341 350 1 11 9 12 18 20 26 15 58 17 354 209 162 139 107 76 59 75
153 158 157 166 178 182 195 189 183 205 203 190 167 154 147 138 107 79 61 41 61 43 74 64 347 339 359 350 12 6 360 360 347 342 340 344 0 8 3 14 25 40 33 34 38 49 61 124 153 164 121 95 77 76
157 157 157 158 160 183 244 210 216 158 169 200 198 202 142 137 144 118 104 59 80 91 92 26 9 1 23 17 11 9 8 9 8 357 359 9 7 2 4 10 6 10 25 27 23 20 29 42 198 195 201 131 132 90
143 147 139 155 179 196 241 194 190 183 151 202 168 117 118 119 137 137 84 96 123 116 62 40 47 39 34 18 11 15 15 9 8 6 12 11 15 14 16 17 2 345 348 3 15 16 33 40 58 193 190 168 162 150
149 154 168 188 192 202 209 194 187 173 179 122 143 177 133 143 158 97 123 122 156 151 158 84 60 42 32 23 18 14 15 7 7 9 4 5 13 14 19 16 10 356 348 343 346 5 13 273 256 142 205 193 191 180
163 184 184 194 191 201 193 169 173 170 182 154 182 150 146 135 93 120 157 157 167 169 173 171 74 34 26 21 21 7 3 3 9 15 12 14 6 12 19 18 15 7 357 350 345 335 339 4 233 213 167 213 210 209
172 194 182 197 214 199 206 174 161 168 165 155 200 135 122 108 122 185 172 168 171 181 171 156 117 53 51 29 10 6 12 10 4 26 20 9 4 7 11 10 4 0 360 351 340 331 316 302 311 246 225 199 215 215
203 214 201 211 219 208 233 128 138 123 168 199 158 111 107 128 187 162 154 171 164 143 133 118 42 259 337 33 359 10 10 14 18 16 4 358 3 8 18 10 1 354 355 345 331 322 313 292 276 270 240 216 203 209
223 222 210 190 208 221 208 158 142 170 196 197 141 151 161 172 165 163 172 164 143 137 133 127 113 58 143 104 60 16 2 2 10 24 46 36 26 19 14 17 5 2 2 3 345 325 309 293 279 269 265 242 206 202
221 216 196 218 200 183 198 186 198 198 182 174 125 96 111 103 146 145 144 141 152 152 133 141 116 112 93 64 35 17 3 357 2 9 11 10 9 12 9 7 7 7 6 4 6 0 332 296 279 283 274 269 244 220
230 198 212 185 159 192 194 201 189 225 210 176 122 114 110 116 123 131 139 145 139 142 142 143 133 151 109 78 43 16 7 0 359 3 6 5 2 358 359 1 6 8 8 7 5 7 2 337 275 268 261 261 255 238
204 192 214 171 190 204 205 190 157 164 149 138 145 136 132 126 133 139 145 161 169 172 174 158 151 112 84 55 42 13 5 358 352 350 355 354 354 358 1 1 3 7 9 10 12 16 18 17 19 7 327 263 248 243
203 205 185 163 182 190 184 137 111 112 121 122 125 132 130 122 107 140 123 181 183 174 163 157 142 116 133 214 303 11 9 344 335 340 342 343 347 356 1 3 4 8 12 14 17 22 25 27 25 25 18 7 345 310
202 213 204 174 165 125 131 121 108 117 123 124 137 135 119 113 128 162 164 180 171 156 147 141 159 174 225 268 302 274 10 316 317 322 332 335 339 347 1 8 8 10 13 18 24 27 30 32 36 34 30 25 18 7
Wind_Speed_850mb
39 38 35 38 33 37 39 39 43 41 41 40 44 44 42 41 34 25 15 11 15 21 58 54 38 53 30 24 7 20 21 9 9 8 4 5 4 7 8 6 7 9 4 6 6 7 10 5 9 13 19 58 44 49
40 39 36 39 34 36 37 38 41 40 41 41 44 45 40 39 34 24 27 13 26 36 48 79 87 76 73 85 65 25 22 21 7 5 5 5 4 5 5 6 2 5 9 5 11 10 4 31 20 48 36 39 53 44
40 41 37 37 37 35 36 37 40 40 42 43 45 45 40 38 35 27 34 36 26 30 56 20 21 17 34 4 22 23 21 22 16 22 2 5 8 1 5 7 9 7 4 9 3 9 17 34 24 34 36 51 62 57
40 40 40 37 38 34 35 37 40 40 44 44 45 43 39 39 37 38 40 37 22 17 12 24 42 68 14 23 24 38 38 16 14 14 10 5 5 7 5 16 21 21 11 10 12 16 28 29 39 43 42 54 59 39
41 40 41 38 38 34 34 37 40 40 42 42 44 41 38 41 42 37 19 9 8 13 9 37 61 28 38 24 18 34 42 46 19 7 7 5 8 6 8 7 8 9 8 4 6 14 11 32 50 43 41 52 42 41
42 42 41 39 40 34 35 38 39 40 42 38 42 39 36 37 37 26 4 18 12 17 13 9 28 31 51 41 19 23 48 48 27 9 7 9 10 3 7 6 12 17 29 26 9 29 33 37 46 56 38 31 34 32
40 38 43 39 40 32 38 39 38 39 39 35 37 35 28 28 24 8 2 2 11 7 9 12 19 24 31 34 28 13 27 27 22 10 11 9 12 15 6 8 14 42 37 19 19 28 23 37 20 41 29 26 22 19
46 38 39 38 34 32 37 38 38 39 35 33 35 29 23 17 7 6 6 11 11 12 6 5 8 18 23 19 11 8 12 18 12 10 7 7 7 14 8 11 38 33 17 13 19 20 28 15 39 40 25 25 19 18
55 44 40 39 29 30 33 37 36 37 33 29 25 23 6 6 4 8 19 13 2 2 3 4 5 7 24 24 19 7 8 4 7 5 6 6 3 8 8 6 23 4 2 11 19 37 26 18 24 33 29 25 21 22
52 48 42 33 27 26 31 34 36 34 30 19 5 3 3 2 10 22 0 4 2 1 5 6 8 7 13 11 10 10 5 2 4 8 6 6 6 16 16 8 3 6 15 11 26 38 26 13 25 31 31 26 23 23
47 42 37 26 27 25 31 32 31 27 18 6 5 4 3 11 6 4 4 7 4 3 5 10 16 11 16 7 6 8 7 6 4 6 5 2 5 10 1 7 12 4 17 12 22 20 29 25 23 31 25 32 32 23
44 42 32 28 30 26 28 26 22 19 14 12 7 2 2 4 6 5 4 9 5 4 6 9 32 31 16 9 8 10 5 7 7 7 4 5 9 42 31 9 10 5 16 17 20 23 31 23 19 30 17 21 24 29
45 43 39 34 30 27 22 17 17 11 7 1 2 2 1 2 4 2 5 5 6 3 9 29 17 12 11 9 8 4 7 7 27 3 4 8 52 65 68 14 11 6 12 18 18 16 26 21 22 33 34 26 27 26
47 45 38 35 29 21 17 15 12 4 4 3 4 8 5 2 4 6 3 2 8 16 30 37 25 9 12 1 2 5 7 7 8 15 9 18 78 84 71 25 15 8 11 19 15 19 28 26 28 26 41 33 39 41
44 43 35 30 22 14 15 13 6 10 6 4 4 3 6 3 16 18 19 21 27 34 42 41 24 11 7 5 2 5 9 11 12 10 10 63 97 97 39 36 6 9 12 15 13 21 24 33 25 32 30 36 38 45
48 36 32 25 17 15 16 12 12 8 4 3 6 3 4 10 14 20 14 17 21 32 30 14 6 8 9 9 8 13 7 6 6 14 50 69 79 81 39 41 38 8 6 15 13 17 19 30 34 34 34 35 36 43
38 35 26 19 22 19 16 24 10 6 4 5 8 9 19 7 15 24 19 23 22 19 3 5 10 3 4 7 7 7 10 12 34 50 66 67 70 79 58 36 28 18 4 11 8 14 17 17 25 34 40 34 34 35
41 33 27 28 25 20 26 12 8 8 10 14 5 3 13 15 21 17 14 17 15 14 11 4 9 11 5 4 4 9 33 39 39 51 54 56 63 68 71 37 21 22 17 4 6 6 9 7 13 20 28 33 34 33
36 34 33 30 33 19 11 10 6 5 16 8 18 10 19 27 22 14 19 14 9 5 5 9 7 5 4 5 17 33 33 41 53 61 57 54 51 51 63 63 40 30 9 12 6 12 12 5 6 7 16 22 26 25
31 32 31 36 34 10 8 8 11 7 5 5 9 8 16 19 18 16 20 15 21 12 13 6 4 6 9 25 30 26 37 46 48 57 60 61 54 41 48 61 61 37 21 17 8 6 4 2 8 10 8 13 21 17
42 35 27 28 26 9 7 8 12 9 5 5 12 15 17 20 14 15 16 17 17 9 6 5 8 9 12 19 25 30 34 35 39 41 46 55 48 47 40 44 54 47 30 24 29 27 13 12 17 16 8 7 10 21
35 30 25 27 8 11 7 11 5 12 11 6 9 7 14 12 12 7 11 13 8 5 4 4 4 10 17 21 27 29 34 35 35 35 38 37 44 46 37 33 34 39 45 36 23 17 21 15 7 23 12 8 8 13
36 34 19 10 7 17 8 12 8 12 5 8 10 7 6 7 14 17 9 7 7 7 4 5 7 8 14 17 23 28 37 41 39 36 44 39 36 41 40 29 23 33 40 38 30 20 14 13 11 24 23 13 15 20
38 16 9 12 13 9 7 9 11 8 10 6 6 7 9 12 22 8 4 9 13 8 4 4 7 10 14 19 24 29 33 34 37 29 39 49 51 47 42 37 30 28 32 34 28 23 14 10 3 10 24 23 24 21
11 13 10 9 14 8 9 9 10 6 7 7 9 5 6 12 5 4 8 15 24 11 8 4 2 7 13 19 17 21 37 29 30 31 35 31 43 47 44 46 42 38 37 35 27 20 15 10 11 8 12 31 30 25
6 11 15 15 7 9 9 9 10 10 6 7 8 15 9 7 6 6 10 30 24 20 19 14 7 7 8 11 12 24 35 39 27 22 27 37 41 48 44 47 52 53 43 36 37 32 21 16 8 12 18 20 36 36
7 10 13 18 11 11 6 6 21 9 8 9 7 7 6 6 6 8 23 28 25 26 18 9 2 3 2 2 9 15 26 36 37 19 11 14 23 37 33 44 51 50 42 34 33 33 30 24 22 16 15 24 30 42
13 8 10 17 13 18 5 7 9 9 8 11 24 8 14 13 6 18 20 26 27 19 13 9 5 0 5 6 6 12 24 30 31 26 12 22 32 43 40 38 43 46 46 40 29 30 29 29 28 26 22 23 33 47
13 11 17 11 12 6 8 9 10 14 18 23 10 5 8 9 22 28 34 29 23 23 18 17 13 19 20 19 21 26 31 35 40 46 48 46 50 52 49 45 45 50 51 52 44 29 27 24 25 27 23 24 24 34
11 23 11 15 11 8 16 17 5 11 17 25 27 43 49 43 31 26 29 25 24 21 16 15 13 9 9 6 15 23 28 33 39 44 45 43 43 44 45 46 48 50 51 53 53 45 29 17 17 24 26 26 26 27
11 29 10 10 11 18 26 19 16 17 33 30 53 68 45 41 41 33 30 26 26 24 19 15 11 7 6 7 8 13 21 24 32 36 38 38 32 36 42 42 43 45 46 47 50 50 44 34 27 17 10 14 21 29
19 17 19 8 7 22 28 26 12 14 33 38 37 40 35 21 10 15 17 17 16 16 17 16 12 10 4 2 2 11 17 17 26 33 42 44 35 35 37 37 39 39 39 41 43 46 49 43 38 34 26 20 14 11
29 21 26 15 11 13 20 21 11 12 14 19 24 34 22 10 9 13 19 15 13 16 15 10 12 8 8 8 7 5 8 12 24 32 38 36 32 33 32 34 35 35 34 35 37 39 43 45 45 39 34 33 29 20
Wind_Direction_850mb
270 278 287 294 307 309 317 322 329 330 330 334 332 333 335 335 336 335 349 241 306 273 282 286 284 262 259 243 247 296 345 341 349 9 348 323 336 328 330 274 216 200 214 236 251 259 280 80 22 313 294 302 306 314
267 274 282 291 302 305 312 318 327 327 327 329 330 328 332 331 330 323 314 263 277 276 264 285 288 275 258 268 266 259 241 290 289 351 13 327 301 311 323 291 352 278 208 245 209 239 300 325 283 301 286 294 306 298
266 272 281 288 297 301 307 316 325 325 324 327 327 324 329 328 323 314 307 311 314 291 307 298 304 354 322 249 288 222 253 232 225 241 140 265 257 178 264 254 277 285 207 243 274 259 255 313 324 309 298 306 307 306
265 272 278 283 291 297 302 313 323 322 323 325 324 321 327 325 321 317 312 312 285 273 278 281 307 317 350 337 265 247 236 227 241 213 223 237 249 196 263 281 283 262 258 239 254 281 308 322 321 316 316 309 311 322
267 270 275 281 287 292 299 311 319 319 321 325 321 319 326 324 323 326 341 347 251 221 290 298 325 357 4 342 293 235 223 229 219 198 221 229 236 258 247 246 242 200 231 255 259 282 293 316 316 317 320 315 317 322
256 266 272 278 285 290 299 307 316 319 321 327 318 317 326 326 331 336 67 51 38 242 300 309 314 326 3 358 288 218 219 222 221 217 222 231 243 118 271 270 268 294 284 261 261 297 286 324 325 337 319 316 318 316
250 258 268 272 279 294 295 307 314 319 321 326 313 315 327 337 331 330 354 312 339 347 272 297 308 311 348 5 4 268 239 223 221 213 226 226 213 207 246 253 282 275 292 257 307 337 314 328 352 344 343 339 333 320
234 255 265 268 273 288 292 306 312 319 321 323 307 308 310 319 317 356 357 348 293 288 299 308 285 300 346 327 295 228 216 222 231 233 225 229 232 213 263 309 274 282 251 255 350 342 333 318 342 353 356 357 351 352
229 236 265 263 272 280 294 305 315 317 321 318 303 311 311 206 309 336 329 342 78 262 323 270 296 296 322 318 295 258 215 238 230 229 236 218 246 234 217 56 289 164 341 352 359 11 12 355 355 357 2 3 3 2
238 226 256 256 272 279 297 308 315 317 324 324 307 355 122 118 280 317 53 150 90 273 242 261 261 268 305 295 285 319 233 253 247 228 220 206 257 283 260 237 205 338 17 28 16 16 18 342 13 13 8 14 13 13
235 224 247 253 263 275 296 307 310 319 329 5 284 213 262 255 272 264 209 189 146 267 251 260 255 269 292 257 278 280 293 249 275 268 257 312 320 330 160 283 191 2 26 45 29 34 24 28 14 16 14 24 24 26
228 222 237 249 252 268 288 297 306 314 342 337 336 353 124 179 242 252 220 127 187 236 234 244 309 293 283 275 296 304 280 309 248 323 275 18 341 349 347 223 178 43 53 60 34 37 31 38 19 16 20 32 35 33
223 232 226 238 247 266 279 290 290 309 340 46 42 326 270 200 22 175 316 356 346 275 297 325 320 289 251 255 266 313 296 278 323 350 60 37 335 331 325 268 184 121 81 79 54 45 37 52 39 24 26 32 32 45
228 223 217 238 248 264 273 265 271 270 170 209 197 323 169 274 310 43 107 166 4 332 336 324 304 265 290 191 22 291 312 313 344 16 2 329 326 319 324 184 182 149 86 70 66 37 37 38 38 38 32 32 38 46
216 208 227 235 244 245 244 246 239 180 168 240 259 234 221 26 79 72 49 22 4 351 339 326 307 229 274 82 24 340 329 34 22 0 304 319 326 330 61 88 117 135 112 67 56 42 41 41 46 40 32 38 47 52
203 215 224 223 220 209 215 192 147 130 171 239 242 311 313 66 26 29 21 18 1 348 338 334 337 20 356 331 61 21 19 18 301 319 323 330 331 342 23 32 38 78 116 47 54 41 48 47 52 48 48 48 54 52
202 212 203 184 176 184 179 157 150 188 224 229 241 259 267 129 72 64 61 20 0 10 320 2 6 345 273 38 38 15 349 314 318 330 331 330 338 346 359 1 6 11 156 56 64 38 39 53 58 57 61 63 59 57
200 195 174 172 169 159 159 162 185 202 226 233 246 242 94 101 86 73 42 16 14 346 326 34 54 25 48 45 15 335 313 327 333 327 329 335 339 357 13 9 358 34 100 94 251 350 36 48 49 62 67 66 70 72
196 181 170 170 163 147 152 177 202 238 228 237 220 146 111 101 90 55 22 13 10 15 72 53 56 46 22 2 319 314 338 345 335 331 335 342 354 6 14 12 23 18 6 5 18 287 303 329 343 51 69 62 62 71
176 163 168 166 164 152 162 190 195 224 244 164 173 160 135 116 101 55 38 45 68 68 56 52 53 347 305 318 334 1 352 345 346 337 341 350 1 11 9 12 18 20 26 15 58 17 354 209 162 139 107 76 59 75
153 158 157 166 178 182 195 189 183 205 203 190 167 154 147 138 107 79 61 41 61 43 74 64 347 339 359 350 12 6 360 360 347 342 340 344 0 8 3 14 25 40 33 34 38 49 61 124 153 164 121 95 77 76
157 157 157 158 160 183 244 210 216 158 169 200 198 202 142 137 144 118 104 59 80 91 92 26 9 1 23 17 11 9 8 9 8 357 359 9 7 2 4 10 6 10 25 27 23 20 29 42 198 195 201 131 132 90
143 147 139 155 179 196 241 194 190 183 151 202 168 117 118 119 137 137 84 96 123 116 62 40 47 39 34 18 11 15 15 9 8 6 12 11 15 14 16 17 2 345 348 3 15 16 33 40 58 193 190 168 162 150
149 154 168 188 192 202 209 194 187 173 179 122 143 177 133 143 158 97 123 122 156 151 158 84 60 42 32 23 18 14 15 7 7 9 4 5 13 14 19 16 10 356 348 343 346 5 13 273 256 142 205 193 191 180
163 184 184 194 191 201 193 169 173 170 182 154 182 150 146 135 93 120 157 157 167 169 173 171 74 34 26 21 21 7 3 3 9 15 12 14 6 12 19 18 15 7 357 350 345 335 339 4 233 213 167 213 210 209
172 194 182 197 214 199 206 174 161 168 165 155 200 135 122 108 122 185 172 168 171 181 171 156 117 53 51 29 10 6 12 10 4 26 20 9 4 7 11 10 4 0 360 351 340 331 316 302 311 246 225 199 215 215
203 214 201 211 219 208 233 128 138 123 168 199 158 111 107 128 187 162 154 171 164 143 133 118 42 259 337 33 359 10 10 14 18 16 4 358 3 8 18 10 1 354 355 345 331 322 313 292 276 270 240 216 203 209
223 222 210 190 208 221 208 158 142 170 196 197 141 151 161 172 165 163 172 164 143 137 133 127 113 58 143 104 60 16 2 2 10 24 46 36 26 19 14 17 5 2 2 3 345 325 309 293 279 269 265 242 206 202
221 216 196 218 200 183 198 186 198 198 182 174 125 96 111 103 146 145 144 141 152 152 133 141 116 112 93 64 35 17 3 357 2 9 11 10 9 12 9 7 7 7 6 4 6 0 332 296 279 283 274 269 244 220
230 198 212 185 159 192 194 201 189 225 210 176 122 114 110 116 123 131 139 145 139 142 142 143 133 151 109 78 43 16 7 0 359 3 6 5 2 358 359 1 6 8 8 7 5 7 2 337 275 268 261 261 255 238
204 192 214 171 190 204 205 190 157 164 149 138 145 136 132 126 133 139 145 161 169 172 174 158 151 112 84 55 42 13 5 358 352 350 355 354 354 358 1 1 3 7 9 10 12 16 18 17 19 7 327 263 248 243
203 205 185 163 182 190 184 137 111 112 121 122 125 132 130 122 107 140 123 181 183 174 163 157 142 116 133 214 303 11 9 344 335 340 342 343 347 356 1 3 4 8 12 14 17 22 25 27 25 25 18 7 345 310
202 213 204 174 165 125 131 121 108 117 123 124 137 135 119 113 128 162 164 180 171 156 147 141 159 174 225 268 302 274 10 316 317 322 332 335 339 347 1 8 8 10 13 18 24 27 30 32 36 34 30 25 18 7